User: anonymous   Login
Location: Unspecified
(0.0000°N, 0.0000°E)
Time: 05:51:42
(UTC+00:00)
Language:

RESURS DK-1 - Orbit

View from above orbital plane
View from above orbital plane
View from above satellite
View from above satellite

Ground track
Ground track

The orbit data is extracted from the following two-line orbital elements,

1 29228U 06021A   18112.86659796  .00000134  00000-0  17535-4 0  9994
2 29228  69.9372  30.0904 0007302 243.5089 116.5323 15.02309055654602
Epoch (UTC): 22 April 2018 20:47:54
Eccentricity: 0.0007302
inclination: 69.9372°
perigee height: 555 km
apogee height: 565 km
right ascension of ascending node: 30.0904°
argument of perigee: 243.5089°
revolutions per day: 15.02309055
mean anomaly at epoch: 116.5323°
orbit number at epoch: 65460

The dashed part of the orbit path shows where the satellite is in the earth's shadow,  

DLR